Вернуться в каталог

ONEWEB-0284

АктивенСвязьPO
NORAD 49002·PAYLOAD·🇬🇧 United Kingdom

Запущен Jul 1, 2021 с Vostochny Cosmodrome

Loading…

Ближайшие Пролёты (ближайшие 24 часа)

TLE

СвежийSource: CelesTrak SupGP

Эпоха: Sep 14, 2026, 12:51 UTC

1 49002C 21060AM  26257.53555972 -.00002771  00000+0 -72584-2 0  2570
2 49002  87.9154 211.0324 0001765  77.2529 321.3747 13.16597768    16

Отслеживайте ONEWEB-0284 в реальном времени с AllMySat

Download on the App Store